EW5507 Weather Reports


time (UTC)temp
C
wind
direction
speed
KPH
gust
KPH
rain 1hr
cm
rain 24hr
cm
rain mn
cm
humidity
%
barometer
mb
20260504035202 10 31 11.3 14.5 0.00 0.00 0.00 37 1013.9
20260504034659 11 51 6.4 11.3 0.00 0.00 0.00 37 1013.9
20260504034155 11 320 8.0 16.1 0.00 0.00 0.00 37 1013.9
20260504033653 11 74 8.0 12.9 0.00 0.00 0.00 36 1013.9
20260504033150 11 9 9.7 14.5 0.00 0.00 0.00 36 1013.9
20260504032647 11 100 8.0 12.9 0.00 0.00 0.00 36 1013.9
20260504032144 11 72 4.8 8.0 0.00 0.00 0.00 36 1013.9
20260504031641 11 22 3.2 4.8 0.00 0.00 0.00 36 1013.2
20260504031137 11 57 11.3 16.1 0.00 0.00 0.00 36 1013.2
20260504030634 11 353 12.9 20.9 0.00 0.00 0.00 36 1013.2
20260504030131 11 350 9.7 11.3 0.00 0.00 0.00 36 1013.2
20260504025628 12 347 6.4 12.9 0.00 0.00 0.00 36 1013.2
20260504025125 12 25 11.3 16.1 0.00 0.00 0.00 36 1012.7
20260504024622 12 16 4.8 8.0 0.00 0.00 0.00 37 1013.2
20260504024118 12 19 14.5 20.9 0.00 0.00 0.00 37 1013.2
20260504023615 12 27 4.8 8.0 0.00 0.00 0.00 38 1012.7
20260504023111 12 359 6.4 11.3 0.00 0.00 0.00 39 1012.4
20260504022608 12 23 6.4 9.7 0.00 0.00 0.00 39 1012.7
20260504022103 12 63 3.2 4.8 0.00 0.00 0.00 39 1012.7
20260504021602 12 32 6.4 8.0 0.00 0.00 0.00 40 1012.7
20260504021058 12 19 11.3 14.5 0.00 0.00 0.00 39 1012.7
20260504020555 12 32 11.3 14.5 0.00 0.00 0.00 40 1012.7
20260504020051 12 34 9.7 16.1 0.00 0.00 0.00 39 1012.7
20260504015548 12 44 8.0 11.3 0.00 0.00 0.00 39 1012.7
20260504015044 12 3 12.9 14.5 0.00 0.00 0.00 39 1012.7
20260504014540 13 359 12.9 16.1 0.00 0.00 0.00 39 1012.7
20260504014038 13 28 14.5 20.9 0.00 0.00 0.00 38 1012.7
20260504013535 13 352 9.7 12.9 0.00 0.00 0.00 37 1012.7
20260504013032 13 70 8.0 11.3 0.00 0.00 0.00 37 1012.4
20260504012530 13 7 12.9 16.1 0.00 0.00 0.00 37 1012.4
20260504012027 13 79 8.0 11.3 0.00 0.00 0.00 37 1012.4
20260504011524 13 337 8.0 11.3 0.00 0.00 0.00 37 1012.1
20260504011020 13 78 9.7 12.9 0.00 0.00 0.00 37 1012.1
20260504010515 13 13 8.0 11.3 0.00 0.00 0.00 37 1012.1
20260504010012 13 36 4.8 8.0 0.00 0.00 0.00 38 1012.1
20260504005509 13 2 12.9 14.5 0.00 0.00 0.00 38 1012.1
20260504005006 13 6 4.8 9.7 0.00 0.00 0.00 37 1012.1
20260504004504 13 31 4.8 8.0 0.00 0.00 0.00 38 1012.1
20260504004000 13 355 4.8 8.0 0.00 0.00 0.00 38 1012.1
20260504003456 13 330 14.5 20.9 0.00 0.00 0.00 37 1012.1
20260504002954 13 14 8.0 11.3 0.00 0.00 0.00 38 1011.7
20260504002450 13 53 9.7 12.9 0.00 0.00 0.00 37 1011.4
20260504001948 13 22 8.0 14.5 0.00 0.00 0.00 38 1011.7
20260504001445 13 21 6.4 9.7 0.00 0.00 0.00 38 1011.4
20260504000942 14 38 9.7 11.3 0.00 0.00 0.00 38 1011.7
20260504000439 14 38 8.0 12.9 0.00 0.00 0.00 38 1011.4
20260503235936 14 44 6.4 9.7 0.00 0.00 0.00 38 1011.4
20260503235434 14 9 6.4 12.9 0.00 0.00 0.00 38 1011.4
20260503234931 14 25 4.8 4.8 0.00 0.00 0.00 37 1011.7
20260503234428 14 36 9.7 16.1 0.00 0.00 0.00 37 1011.4
20260503233926 15 23 3.2 4.8 0.00 0.00 0.00 37 1011.4
20260503233423 15 18 8.0 12.9 0.00 0.00 0.00 37 1010.9
20260503232919 15 14 8.0 9.7 0.00 0.00 0.00 36 1011.4
20260503232416 15 63 9.7 17.7 0.00 0.00 0.00 36 1010.9
20260503231914 15 349 11.3 17.7 0.00 0.00 0.00 36 1011.4
20260503231411 15 42 8.0 11.3 0.00 0.00 0.00 36 1010.9
20260503230907 15 53 9.7 14.5 0.00 0.00 0.00 35 1011.4
20260503230404 15 11 9.7 16.1 0.00 0.00 0.00 35 1010.9
20260503225902 15 39 8.0 11.3 0.00 0.00 0.00 34 1011.4
20260503225357 15 354 14.5 17.7 0.00 0.00 0.00 34 1010.9
20260503224854 15 42 14.5 20.9 0.00 0.00 0.00 34 1010.9
20260503224351 15 332 11.3 14.5 0.00 0.00 0.00 34 1010.9
20260503223849 15 22 6.4 9.7 0.00 0.00 0.00 34 1010.9
20260503223347 15 34 8.0 11.3 0.00 0.00 0.00 33 1010.6
20260503222842 15 80 4.8 11.3 0.00 0.00 0.00 33 1010.9
20260503222341 15 32 9.7 12.9 0.00 0.00 0.00 33 1010.9
20260503221838 15 13 8.0 16.1 0.00 0.00 0.00 33 1010.9
20260503221337 15 347 11.3 14.5 0.00 0.00 0.00 33 1010.9
20260503220832 15 32 9.7 12.9 0.00 0.00 0.00 33 1010.9
20260503220329 15 332 8.0 11.3 0.00 0.00 0.00 33 1010.6
20260503215826 15 316 9.7 11.3 0.00 0.00 0.00 33 1010.6
20260503215323 15 333 8.0 11.3 0.00 0.00 0.00 34 1010.6
20260503214821 15 40 6.4 8.0 0.00 0.00 0.00 34 1010.6
20260503214318 15 349 6.4 9.7 0.00 0.00 0.00 33 1010.6
20260503213815 15 36 8.0 11.3 0.00 0.00 0.00 34 1010.6
20260503213313 15 81 6.4 12.9 0.00 0.00 0.00 34 1010.6
20260503212810 15 141 4.8 8.0 0.00 0.00 0.00 34 1010.6
20260503212308 15 342 8.0 11.3 0.00 0.00 0.00 34 1010.9
20260503211805 15 4 8.0 11.3 0.00 0.00 0.00 34 1010.6
20260503211301 16 46 6.4 11.3 0.00 0.00 0.00 34 1010.6
20260503210801 16 349 9.7 14.5 0.00 0.00 0.00 34 1010.6
20260503210259 16 22 9.7 12.9 0.00 0.00 0.00 34 1010.6
20260503205754 16 337 8.0 9.7 0.00 0.00 0.00 34 1010.6
20260503205251 16 346 4.8 8.0 0.00 0.00 0.00 34 1010.6
20260503204747 16 9 8.0 12.9 0.00 0.00 0.00 34 1010.6
20260503204245 16 316 6.4 9.7 0.00 0.00 0.00 34 1010.9
20260503203742 16 35 6.4 11.3 0.00 0.00 0.00 34 1010.6
20260503203240 16 19 8.0 11.3 0.00 0.00 0.00 34 1010.6
20260503202736 16 4 14.5 17.7 0.00 0.00 0.00 34 1010.6
20260503202234 16 61 4.8 8.0 0.00 0.00 0.00 34 1010.3
20260503201732 16 33 4.8 8.0 0.00 0.00 0.00 35 1010.6
20260503201229 16 42 8.0 16.1 0.00 0.00 0.00 35 1010.3
20260503200726 16 333 8.0 11.3 0.00 0.00 0.00 33 1010.6
20260503200222 16 27 8.0 11.3 0.00 0.00 0.00 32 1010.3
20260503195719 16 33 9.7 14.5 0.00 0.00 0.00 32 1010.3
20260503195216 16 346 9.7 16.1 0.00 0.00 0.00 32 1010.3
20260503194713 16 89 14.5 16.1 0.00 0.00 0.00 32 1010.3
20260503194209 17 328 9.7 14.5 0.00 0.00 0.00 32 1010.3
20260503193705 17 50 11.3 20.9 0.00 0.00 0.00 32 1010.3
20260503193201 17 348 8.0 9.7 0.00 0.00 0.00 32 1010.3
20260503192657 17 2 16.1 20.9 0.00 0.00 0.00 31 1010.6
20260503192152 17 12 4.8 8.0 0.00 0.00 0.00 32 1010.3
20260503191649 17 304 11.3 16.1 0.00 0.00 0.00 32 1010.3
20260503191147 17 35 17.7 25.7 0.00 0.00 0.00 32 1009.9
20260503190643 17 56 9.7 12.9 0.00 0.00 0.00 32 1009.9
20260503190140 17 309 9.7 12.9 0.00 0.00 0.00 32 1010.3
20260503185637 17 81 6.4 8.0 0.00 0.00 0.00 32 1010.3
20260503185132 17 136 9.7 12.9 0.00 0.00 0.00 32 1010.3
20260503184627 17 290 9.7 11.3 0.00 0.00 0.00 33 1010.3
20260503184124 17 329 6.4 12.9 0.00 0.00 0.00 33 1010.3
20260503183621 17 338 8.0 9.7 0.00 0.00 0.00 32 1010.3
20260503183118 17 343 9.7 12.9 0.00 0.00 0.00 32 1010.3
20260503182616 17 352 6.4 9.7 0.00 0.00 0.00 31 1010.3
20260503182114 17 44 6.4 11.3 0.00 0.00 0.00 31 1010.3
20260503181611 17 59 11.3 16.1 0.00 0.00 0.00 31 1010.3
20260503181108 17 307 8.0 9.7 0.00 0.00 0.00 31 1010.3
20260503180605 17 98 8.0 9.7 0.00 0.00 0.00 32 1010.3
20260503180103 17 179 12.9 20.9 0.00 0.00 0.00 31 1010.3
20260503175559 17 11 8.0 12.9 0.00 0.00 0.00 33 1010.3
20260503175056 17 2 8.0 11.3 0.00 0.00 0.00 32 1010.3
20260503174553 17 1 9.7 14.5 0.00 0.00 0.00 32 1010.3
20260503174050 17 58 9.7 22.5 0.00 0.00 0.00 32 1010.3
20260503173545 17 59 11.3 16.1 0.00 0.00 0.00 32 1010.3
20260503173041 17 31 9.7 16.1 0.00 0.00 0.00 32 1010.3
20260503172539 17 34 6.4 11.3 0.00 0.00 0.00 33 1010.3
20260503172036 17 359 3.2 4.8 0.00 0.00 0.00 34 1010.3
20260503171532 17 114 8.0 14.5 0.00 0.00 0.00 34 1010.3
20260503171030 17 348 6.4 9.7 0.00 0.00 0.00 35 1010.3
20260503170526 16 3 4.8 8.0 0.00 0.00 0.00 35 1010.3
20260503150918 14 76 8.0 12.9 0.00 0.00 0.00 41 1009.9
20260503150415 14 77 3.2 4.8 0.00 0.00 0.00 42 1009.9
20260503131308 10 74 1.6 3.2 0.00 0.00 0.00 48 1009.5
20260503130806 10 92 0.0 3.2 0.00 0.00 0.00 47 1009.5
20260503130303 10 107 0.0 0.0 0.00 0.00 0.00 47 1009.5
20260503110657 10 113 1.6 1.6 0.00 0.00 0.00 45 1009.5
20260503110154 10 117 1.6 1.6 0.00 0.00 0.00 45 1009.2
20260503100120 11 115 0.0 1.6 0.00 0.00 0.00 43 1009.9
20260503081510 12 9 4.8 4.8 0.00 0.00 0.00 40 1010.3
20260503081007 12 198 1.6 1.6 0.00 0.00 0.00 41 1010.3
20260503080503 12 112 0.0 1.6 0.00 0.00 0.00 41 1010.6
20260503072939 12 76 3.2 4.8 0.00 0.00 0.00 41 1010.6
20260503072437 12 87 3.2 3.2 0.00 0.00 0.00 41 1010.6
20260503071934 12 138 0.0 0.0 0.00 0.00 0.00 40 1010.3
20260503071431 13 123 0.0 0.0 0.00 0.00 0.00 40 1010.3
20260503070926 13 117 0.0 1.6 0.00 0.00 0.00 40 1010.3
20260503070424 13 87 3.2 9.7 0.00 0.00 0.00 40 1010.6
20260503054837 15 48 3.2 3.2 0.00 0.00 0.00 36 1009.9
20260503054333 15 94 4.8 8.0 0.00 0.00 0.00 35 1009.9
20260503053831 15 138 0.0 0.0 0.00 0.00 0.00 35 1009.9
20260503053330 15 144 0.0 0.0 0.00 0.00 0.00 35 1009.9
20260503052826 15 126 0.0 0.0 0.00 0.00 0.00 36 1009.9
20260503052323 15 136 0.0 0.0 0.00 0.00 0.00 36 1009.9
20260503051819 15 139 0.0 0.0 0.00 0.00 0.00 36 1009.9
20260503051315 15 128 0.0 1.6 0.00 0.00 0.00 35 1010.3
20260503050812 14 143 0.0 0.0 0.00 0.00 0.00 36 1009.9
20260503050308 13 116 0.0 0.0 0.00 0.00 0.00 35 1009.9
20260503045806 13 136 0.0 1.6 0.00 0.00 0.00 35 1010.3
20260503045305 13 160 0.0 0.0 0.00 0.00 0.00 39 1009.9
20260503044800 13 149 0.0 0.0 0.00 0.00 0.00 40 1009.9
20260503044257 14 152 0.0 0.0 0.00 0.00 0.00 41 1009.5
20260503043754 15 165 0.0 0.0 0.00 0.00 0.00 41 1009.5
20260503043251 15 163 0.0 1.6 0.00 0.00 0.00 39 1009.5
20260503042747 15 162 0.0 1.6 0.00 0.00 0.00 38 1009.5
20260503042244 15 157 1.6 1.6 0.00 0.00 0.00 39 1009.9
20260503041739 15 160 0.0 0.0 0.00 0.00 0.00 37 1009.9
20260503041238 15 145 0.0 0.0 0.00 0.00 0.00 36 1009.9
20260503040735 15 92 0.0 1.6 0.00 0.00 0.00 36 1009.5
20260503040233 16 140 0.0 0.0 0.00 0.00 0.00 35 1009.5
20260503035729 16 32 3.2 3.2 0.00 0.00 0.00 35 1009.5